Regional Weather Roundup
Issued by NWS Bismarck, ND

Home | Current Version | Previous Version | Text Only | Print | Product List | Glossary On
Versions: 1 2 3 4 5 6 7 8 9 10 11 12 13 14 15 16 17 18 19 20 21 22 23 24 25 26 27 28 29 30 31 32 33 34 35 36 37 38 39 40 41 42 43 44 45 46 47 48 49 50
000
ASUS43 KBIS 010302
RWRBIS

NWR BROADCAST TEXT
NATIONAL WEATHER SERVICE BISMARCK ND
1000 PM CDT TUE JUN 30 2015

NOTE: "FAIR" INDICATES FEW OR NO CLOUDS BELOW 12,000 FEET WITH NO
SIGNIFICANT WEATHER AND/OR OBSTRUCTIONS TO VISIBILITY.


CITY           SKY/WX    TMP DP  RH WIND       PRES   REMARKS
WILLISTON      MOCLDY    68  59  73 E12       29.90F HAZE
MINOT          CLOUDY    66  64  93 CALM      29.90F FOG
MINOT AFB      LGT RAIN  66  66 100 E2        29.89F FOG
BISMARCK       CLOUDY    69  65  86 NE8       29.89R
DICKINSON      TSTM      67  59  75 NW15G37   29.91R
GARRISON         N/A     64  61  90 CALM      29.93S
HETTINGER ARPT LGT RAIN  70  66  87 S12       29.86F FOG
JAMESTOWN      MOCLDY    67  60  78 E8        29.90S
HAZEN          LGT RAIN  64  64 100 NE5       29.95R
OAKES            N/A     66  63  88 E10       29.90R
STANLEY        MOCLDY    63  63 100 CALM      29.92S FOG
$$

CITY           SKY/WX    TMP DP  RH WIND       PRES   REMARKS
GRAND FORKS    CLOUDY    66  61  84 CALM      29.91R
GRAND FORKS AF CLOUDY    65  61  86 SW2       29.92R
DEVILS LAKE    CLOUDY    66  57  72 SE8       29.92S
FARGO          CLOUDY    68  62  81 E5        29.91R
CAVALIER       FAIR      66  63  88 CALM      29.92R HAZE
GRAFTON        FAIR      68  61  77 CALM      29.92S
LANGDON        FAIR      64  63  94 S5        29.95R
$$

CITY           SKY/WX    TMP DP  RH WIND       PRES   REMARKS
ABERDEEN       MOCLDY    69  65  86 NE3       29.88S
MOBRIDGE       MOCLDY    68  68 100 E9        29.86R FOG
BUFFALO          N/A     71  60  68 E15G29    29.82R
RAPID CITY     CLEAR     72  68  87 SE5       29.90R
SIDNEY         MOCLDY    68  61  77 NE10      29.89R
WOLF POINT     PTCLDY    69  60  73 E15       29.88R HAZE
GLENDIVE       CLEAR     73  57  56 NE12      29.87R
MILES CITY     CLEAR     86  49  27 N15       29.86R
BAKER          CLEAR     69  58  67 E8        29.89R
$$

CITY           SKY/WX    TMP DP  RH WIND       PRES   REMARKS
BILLINGS       PTCLDY    84  42  22 N9        29.96R
GREAT FALLS    CLEAR     80  50  34 NE13      29.99R
$$



USA.gov is the U.S. government's official web portal to all federal, state and local government web resources and services.